Flag for Lithuania Weather past 2 weeks in Kaunas, Lithuania

61 °F

Passing clouds.

Feels Like: 61 °F
Forecast: 46 / 63 °F
Wind: 8 mph from South

Location: Kaunas

Current Time: Oct 4, 2015 at 1:20:27 PM

Latest Report: Oct 4, 2015 at 12:50 PM

Visibility: N/A

Pressure: 29.98 "Hg

Humidity: 68%

Dew point: 50 °F

Location of KaunasLocation

Historic Weather in Kaunas — Graph


Kaunas temperature yesterday

Maximum temperature yesterday: 59 °F (at 1:50 PM)
Minimum temperature yesterday: 46 °F (at 10:50 PM)
Average temperature yesterday: 54 °F

Past Weeks' High & Low Weather Summary

High77 °F (Sep 24, 2:50 PM)100% (Sep 19, 10:50 PM)30.63 "Hg (Sep 19, 10:50 PM)
Low36 °F (Sep 30, 7:20 AM)46% (Sep 19, 2:20 PM)29.80 "Hg (Sep 21, 3:50 PM)
Average54 °F81%30.15 "Hg
* Reported Sep 19 12:20 PM — Oct 4 12:20 PM, Kaunas, Weather by CustomWeather, © 2015

Note: Actual official high and low records may vary slightly from our data, if they occured in-between our weather recording intervals... More about our weather records


Kaunas weather history for previous 24 hours

Time TempWeatherWind HumidityBarometerVisibility
12:20 PM
Sun, Oct 4
59 °FPassing clouds.8 mph72%30.01 "HgN/A
11:50 AM55 °FSunny.6 mph77%30.01 "Hg10 mi
11:20 AM55 °FPassing clouds.8 mph72%30.01 "HgN/A
10:50 AM54 °FPassing clouds.6 mph82%30.01 "HgN/A
10:20 AM50 °FPassing clouds.3 mph88%30.01 "HgN/A
9:50 AM48 °FSunny.2 mph94%30.04 "Hg10 mi
9:20 AM45 °FSunny.No wind100%30.04 "Hg10 mi
8:50 AM43 °FSunny.3 mph100%30.04 "Hg10 mi
8:20 AM39 °FFog.3 mph100%30.04 "Hg3 mi
7:20 AM41 °FFog.2 mph100%30.04 "Hg3 mi
6:50 AM39 °FLow clouds.2 mph100%30.04 "Hg5 mi
6:20 AM39 °FFog.3 mph100%30.07 "Hg3 mi
5:50 AM41 °FFog.2 mph100%30.07 "Hg3 mi
5:20 AM41 °FFog.2 mph100%30.07 "Hg3 mi
4:50 AM39 °FFog.3 mph93%30.07 "Hg1 mi
4:20 AM39 °FFog.5 mph100%30.07 "Hg1 mi
3:50 AM39 °FFog.3 mph100%30.09 "Hg0 mi
3:20 AM39 °FPassing clouds.5 mph100%30.09 "Hg1 mi
2:50 AM41 °FPassing clouds.2 mph93%30.09 "Hg5 mi
2:20 AM41 °FQuite cool.2 mph100%30.09 "Hg6 mi
1:50 AM41 °FFog.No wind100%30.09 "Hg3 mi
1:20 AM45 °FQuite cool.No wind93%30.09 "Hg2 mi
12:20 AM43 °FFog.2 mph100%30.12 "Hg3 mi
11:50 PM
Sat, Oct 3
46 °FSleet. Light fog.1 mph100%30.12 "Hg5 mi
11:20 PM46 °FPassing clouds.1 mph100%30.12 "Hg5 mi
10:50 PM46 °FPassing clouds.No wind100%30.12 "Hg5 mi
10:20 PM48 °FPassing clouds.No wind100%30.12 "HgN/A
9:50 PM48 °FClear.1 mph94%30.12 "Hg10 mi
9:20 PM50 °FClear.2 mph94%30.12 "Hg10 mi
8:50 PM52 °FPassing clouds.6 mph88%30.12 "HgN/A
8:20 PM50 °FClear.5 mph94%30.12 "Hg10 mi
7:50 PM52 °FSunny.5 mph88%30.12 "Hg10 mi
7:20 PM52 °FSunny.5 mph88%30.12 "Hg10 mi
6:50 PM54 °FSunny.5 mph82%30.12 "Hg10 mi
6:20 PM54 °FSunny.3 mph88%30.12 "Hg10 mi
5:50 PM57 °FSunny.1 mph77%30.12 "Hg10 mi
5:20 PM59 °FSunny.1 mph72%30.12 "Hg10 mi
4:50 PM59 °FPassing clouds.2 mph72%30.12 "HgN/A
4:20 PM59 °FScattered clouds.5 mph72%30.12 "HgN/A
3:50 PM59 °FScattered clouds.5 mph72%30.12 "HgN/A
3:20 PM59 °FPassing clouds.6 mph77%30.12 "HgN/A
2:50 PM59 °FPartly sunny.8 mph72%30.15 "HgN/A
2:20 PM59 °FPartly sunny.5 mph77%30.12 "HgN/A
1:50 PM59 °FPartly sunny.7 mph77%30.12 "HgN/A
1:20 PM57 °FPartly sunny.5 mph77%30.12 "HgN/A
Weather by CustomWeather, © 2015

See weather overviewHow to use our weather pages